Zurück zum Katalog

COSMOS 1523

AktivMilitärLEO
NORAD 14612·PAYLOAD·🇷🇺 Russia

Gestartet Jan 5, 1984 von Plesetsk Cosmodrome

Loading…

Nächste Überflüge (nächste 24 Stunden)

TLE

AktuellSource: Space-Track

Epoche: Sep 14, 2026, 07:56 UTC

1 14612U 84001B   26257.33077634 -.00000014  00000-0  15498-4 0  9999
2 14612  74.0038 212.2558 0040878  76.7542  75.9325 12.58657828961505

Verfolge COSMOS 1523 in Echtzeit mit AllMySat

Download on the App Store